Location: Colossi of Memnon
(25.7167°N, 32.6167°E)
Time: 02:44:02
(UTC+00:00)

ATLAS CENTAUR R/B - Pass Details

Date: 05 March 2021
Orbit: 475 x 670 km, 64.7° (Epoch: 30 March)

Event Time Altitude Azimuth Distance (km) Brightness Sun altitude
Exits shadow 02:56:45 13° 211° (SSW) 1,776 3.6 -17.1°
Drops below altitude 10° 02:57:31 10° 203° (SSW) 1,981 3.9 -16.9°
Sets 03:00:22 0° 186° (S) 2,919 4.9 -16.3°
